Wind_Speed
18 20 23 25 27 28 30 33 34 33 29 27 27 26 25 28 29 29 31 30 30 33 37 40 37 33 34 35 29 25 30 34 32 29 29 29 30 29 28 30 31 31 32 35 39 39 37 34 29 28 28 27 26 26 26 25 23 21 19 18 18 19 18 17 16 18 19 19 20 21 19 18 16 17 18 18 17 16 16 15 15 16 16 16 15 15
19 23 25 25 28 29 30 31 31 30 29 29 29 28 27 29 30 27 29 31 30 30 34 36 35 32 31 34 33 28 28 31 32 31 31 30 30 30 30 31 32 32 34 35 38 40 36 32 29 28 28 27 27 27 26 26 24 21 20 19 19 19 17 17 17 18 18 20 22 20 17 17 16 17 18 16 16 15 15 15 15 17 17 17 17 17
23 26 26 26 28 29 28 28 30 30 31 31 29 28 29 29 29 26 27 31 31 29 29 32 34 33 31 32 34 32 30 31 33 32 32 31 31 32 31 32 35 36 37 37 37 39 35 30 30 30 29 28 28 27 26 25 23 21 21 20 20 19 18 19 19 19 19 20 21 18 17 17 16 17 17 15 15 15 15 16 17 18 18 18 18 17
27 26 27 28 27 27 28 28 29 30 32 32 30 29 28 28 29 27 27 29 29 28 26 27 31 32 30 31 34 35 32 31 31 32 32 32 33 34 32 33 39 39 38 36 36 37 34 31 30 30 30 29 28 26 25 25 24 22 22 21 20 20 20 20 20 19 20 20 20 19 18 17 16 16 16 15 14 14 15 17 17 18 18 18 18 17
27 25 25 27 27 26 29 29 29 31 31 33 33 31 27 26 29 28 26 26 25 25 26 25 26 30 32 32 35 37 33 30 30 31 32 33 33 33 32 34 38 39 38 36 35 36 34 32 31 31 31 30 28 26 25 25 24 23 23 22 21 21 21 20 19 20 20 20 19 18 17 17 16 17 16 16 14 14 16 17 17 17 18 18 17 18
29 27 25 25 26 28 30 31 32 32 30 32 35 33 27 25 27 27 25 27 26 24 29 29 21 22 32 35 35 36 35 32 31 31 33 33 33 32 33 37 38 38 38 36 35 36 34 32 32 33 33 31 29 26 25 26 24 24 24 22 21 21 21 21 20 20 19 19 19 17 17 17 17 17 17 16 14 15 16 16 16 16 17 17 17 19
29 28 27 25 26 28 31 33 33 33 31 31 35 34 29 25 27 28 27 27 27 24 28 33 23 16 27 35 35 36 36 35 33 32 34 34 33 34 36 40 39 37 39 36 35 37 35 33 34 34 34 33 29 26 26 27 25 24 24 21 21 22 23 23 21 20 20 19 19 18 19 20 18 17 16 15 15 16 16 16 15 15 16 16 16 17
26 28 27 26 27 29 33 35 34 34 33 31 33 34 30 27 25 29 30 27 25 23 23 33 31 20 21 31 35 36 36 36 36 34 34 35 35 36 39 41 39 37 38 37 37 38 36 35 35 35 35 33 29 28 28 28 27 26 24 21 22 24 25 24 22 21 22 21 19 19 21 21 17 15 15 15 16 17 16 16 15 14 14 15 14 15
25 28 28 27 29 31 33 35 33 33 34 30 29 32 33 28 22 26 32 29 25 22 21 30 34 21 17 26 33 37 38 37 39 38 36 37 37 37 40 41 38 38 38 37 38 39 37 36 37 36 36 33 31 31 31 31 30 26 23 22 24 26 24 23 23 23 24 22 20 22 22 21 16 14 16 16 16 17 16 15 15 14 13 13 14 15
24 26 26 28 31 31 31 33 34 33 33 30 26 29 33 30 24 22 29 32 27 21 21 28 33 22 15 23 30 36 42 42 40 39 37 38 38 37 39 38 37 38 38 36 37 39 39 38 37 37 36 33 32 33 33 33 30 24 21 20 22 24 22 21 23 24 25 22 21 23 23 20 17 15 16 17 17 17 16 16 16 15 13 14 16 16
24 23 24 28 31 30 29 32 35 33 31 30 27 28 30 31 28 22 25 31 23 17 22 27 34 28 16 21 30 35 42 41 38 37 37 38 38 38 40 38 37 38 37 37 38 39 41 39 37 37 36 34 33 33 34 33 28 23 20 17 18 22 22 21 24 25 25 23 21 22 21 19 18 17 18 18 18 17 17 17 17 17 16 18 17 16
25 25 25 27 29 28 28 31 33 32 31 31 30 29 28 28 30 24 23 26 16 13 25 29 32 32 21 21 30 32 35 37 37 38 38 39 38 38 41 38 37 39 38 39 41 41 42 41 38 38 36 35 34 33 33 32 27 22 19 17 18 22 22 22 24 25 24 22 21 21 19 19 19 19 20 19 18 18 18 18 18 18 19 19 18 17
25 29 27 25 28 31 29 29 32 33 34 34 33 32 26 19 22 19 15 17 14 15 26 31 29 28 27 28 27 26 31 34 35 37 37 39 39 38 41 38 37 41 40 39 41 43 45 42 39 37 35 34 33 32 31 29 24 20 18 19 20 22 22 21 22 22 22 20 19 18 18 18 18 19 20 19 18 19 19 18 17 17 20 21 19 17
21 25 28 26 29 35 32 30 33 35 37 37 36 35 25 13 12 14 12 12 15 17 23 29 26 21 25 31 27 23 28 32 32 34 37 39 40 41 42 39 39 44 43 38 40 43 44 42 38 36 34 33 33 32 30 26 21 19 19 19 20 20 21 21 20 20 20 19 18 18 18 17 16 17 18 18 18 19 20 18 17 18 20 20 18 16
18 19 28 31 31 35 34 30 31 34 37 38 36 34 29 21 16 13 12 12 13 16 21 25 22 19 20 25 30 25 21 27 31 32 36 38 39 41 42 41 43 45 42 37 39 42 43 42 38 35 34 33 32 31 28 24 20 19 18 19 19 19 20 20 20 20 19 18 18 18 18 16 15 17 18 18 18 19 20 19 19 19 20 20 18 17
19 19 26 31 31 33 34 30 30 32 34 36 36 35 33 30 24 16 14 15 15 14 17 20 21 25 20 15 25 27 18 23 28 30 35 37 38 40 40 43 45 45 40 37 39 42 43 42 37 35 34 33 31 30 27 24 21 20 19 19 20 20 19 19 19 19 19 18 18 19 17 15 15 17 18 18 17 19 21 21 21 21 20 20 19 17
18 19 23 29 30 33 34 30 31 32 32 33 36 36 33 29 26 20 14 16 17 12 14 19 19 25 22 12 20 27 22 23 26 29 35 36 38 40 40 43 45 42 40 37 38 40 42 40 36 34 33 32 31 28 25 23 21 20 19 21 22 20 18 17 18 19 19 18 18 19 17 14 15 17 17 18 17 17 18 20 20 20 21 19 17 17
18 18 21 30 33 35 33 26 28 33 32 33 35 35 33 28 25 23 14 10 14 10 12 20 20 21 21 15 19 27 26 25 26 30 33 34 38 40 39 42 43 40 38 36 36 39 40 38 34 32 32 31 30 27 24 22 20 20 21 22 21 19 18 18 19 19 18 17 17 18 15 14 15 17 18 18 18 18 18 19 20 22 22 19 16 16
20 16 19 30 34 34 32 26 27 33 32 32 33 32 31 25 23 24 16 10 13 9 9 18 20 20 21 19 21 25 26 27 28 30 32 34 37 38 38 41 42 40 38 35 36 40 40 36 32 31 31 31 29 26 24 21 20 21 21 20 19 18 19 20 19 18 17 17 18 17 15 14 15 17 17 16 18 20 21 21 23 24 22 18 17 17
18 14 15 28 35 33 32 29 28 33 33 31 31 32 32 26 21 23 20 15 14 10 9 14 15 17 22 21 23 25 25 27 29 30 33 34 35 37 39 43 43 40 37 34 36 41 39 33 31 31 30 30 28 26 24 22 21 21 20 19 19 19 20 20 19 18 18 18 18 16 14 14 15 16 16 16 19 21 22 24 25 24 21 19 18 18
18 16 13 25 33 32 32 31 28 33 35 33 32 33 33 26 19 19 21 20 17 10 8 10 9 15 22 21 21 25 26 27 29 30 32 33 34 37 39 41 41 40 38 34 35 40 38 32 29 30 29 29 28 26 24 22 21 20 18 19 20 20 20 19 19 19 20 19 16 14 14 14 16 16 16 19 21 22 25 27 26 23 20 18 17 17
18 16 15 25 33 33 33 30 27 30 33 31 32 33 33 27 20 15 14 19 22 16 11 10 8 14 22 22 20 23 26 27 28 28 30 32 34 38 40 39 37 38 38 34 35 40 37 31 28 28 29 30 28 26 24 23 22 19 18 20 22 21 19 20 20 20 19 17 14 14 14 15 16 17 19 22 23 24 27 27 25 22 19 17 17 17
18 16 17 25 29 28 29 27 26 29 32 30 29 31 31 28 25 19 14 17 22 21 19 14 9 11 19 22 20 20 24 27 27 28 29 31 33 37 39 38 36 37 37 34 36 40 36 31 28 28 29 29 28 27 25 24 23 20 18 20 22 21 19 20 20 20 19 16 14 14 16 16 16 18 21 23 24 27 27 25 21 19 17 17 17 17
15 15 18 24 23 23 26 26 26 29 30 30 28 30 30 27 25 21 16 15 18 20 20 14 8 10 16 18 18 18 21 24 26 28 28 29 32 34 36 38 38 38 36 34 36 40 36 31 30 29 29 29 29 28 26 26 24 21 20 21 22 20 20 20 21 20 19 17 15 16 17 17 17 20 22 24 26 27 24 21 19 18 17 17 17 16
14 15 21 22 15 18 22 22 25 29 31 30 28 30 30 28 24 19 14 14 14 15 16 11 8 12 15 16 17 17 19 22 25 27 27 29 31 31 32 34 35 35 34 33 35 38 36 34 32 29 29 30 30 29 28 27 25 22 20 21 22 22 22 22 22 21 19 18 17 17 18 18 18 21 24 25 25 23 20 19 18 17 17 17 17 16
9 11 19 17 10 12 15 17 23 29 31 31 28 28 29 29 26 20 15 15 13 14 16 11 9 15 17 16 17 17 19 20 22 24 26 26 28 30 32 31 31 32 32 32 35 38 37 35 33 30 30 31 31 29 28 27 25 23 21 22 22 23 23 23 22 21 19 19 18 18 20 20 20 23 24 24 23 21 19 19 18 17 18 17 16 15
8 8 13 13 14 16 17 22 27 29 31 32 30 28 27 28 28 22 16 14 15 17 16 9 11 17 17 17 18 18 17 18 20 23 25 26 27 31 33 31 30 31 30 30 35 37 35 34 32 29 29 30 30 30 29 27 26 24 23 22 22 23 24 23 22 20 20 20 20 20 22 22 22 24 24 23 22 21 20 19 18 19 19 17 16 15
6 9 9 9 13 14 17 22 24 26 29 30 30 30 29 29 29 27 20 15 15 17 13 10 13 16 17 17 17 16 14 15 17 21 25 28 30 31 31 29 29 30 28 29 32 33 32 32 30 28 29 30 30 30 29 28 26 24 23 22 22 23 24 24 22 21 21 21 21 22 23 23 24 25 25 24 23 22 20 19 19 20 19 18 17 17
6 9 11 10 11 11 15 24 25 25 27 28 28 30 30 28 28 28 25 18 15 15 13 15 14 14 17 16 14 12 11 11 12 16 21 25 28 28 28 29 29 29 29 29 30 29 29 29 28 27 29 30 30 30 30 29 26 25 24 23 23 25 25 24 23 22 22 22 22 23 24 23 24 25 26 25 24 22 21 20 20 20 20 19 18 17
6 6 10 12 10 7 11 24 29 25 26 27 27 27 27 26 25 26 26 21 17 13 13 16 14 12 11 12 11 9 7 6 5 10 17 22 25 27 27 28 29 28 27 28 29 28 27 27 27 28 28 29 29 30 30 29 27 26 25 24 25 26 26 25 24 23 23 22 23 24 24 24 25 25 25 24 23 22 21 21 20 20 20 20 19 18
4 2 6 8 9 6 7 17 24 23 24 25 25 26 27 26 24 25 26 24 19 14 10 10 7 6 7 9 9 5 2 2 3 4 15 21 23 25 26 26 26 25 26 28 29 28 27 26 27 28 27 28 29 30 30 28 27 26 25 26 27 28 27 26 25 25 24 23 23 24 25 26 26 25 24 23 22 21 21 21 21 21 20 20 20 19
7 6 2 4 7 10 11 14 19 22 23 23 25 26 27 27 26 26 26 25 22 17 12 9 8 7 7 8 6 1 0 0 5 3 11 20 20 22 24 24 25 25 26 28 29 28 26 26 26 26 26 27 29 29 28 27 26 26 26 27 28 28 27 26 26 26 24 23 24 25 26 26 26 26 24 23 21 21 21 21 22 22 21 21 21 20
7 10 5 3 5 10 14 15 18 21 19 19 25 27 27 28 27 26 26 25 23 20 15 13 10 7 6 4 3 1 3 1 5 6 5 18 21 21 22 23 24 24 26 28 29 28 27 26 26 26 26 27 27 26 25 25 25 25 26 27 28 29 28 27 27 26 24 24 24 25 26 26 26 26 25 24 22 21 21 22 22 23 23 22 22 22
6 11 8 3 2 7 15 18 18 17 13 14 21 25 25 26 26 25 24 23 24 24 20 15 9 4 2 1 4 4 2 2 7 11 4 15 23 22 23 25 24 25 28 30 29 28 27 26 26 25 25 25 24 23 23 24 24 26 27 28 29 29 28 27 27 25 24 24 24 24 25 25 25 26 25 25 23 22 22 23 23 24 24 24 24 24
9 12 9 5 3 6 16 19 15 12 9 9 15 21 22 23 22 22 21 20 24 28 27 22 16 9 5 4 7 10 10 10 12 14 8 11 22 23 24 25 25 25 28 29 29 28 27 25 24 23 23 23 23 23 23 24 26 28 28 29 29 29 28 27 26 25 24 24 24 24 25 25 25 25 25 25 24 23 23 24 24 25 25 25 25 25
10 12 10 8 5 8 17 16 10 7 8 9 11 16 20 21 21 20 19 20 23 28 29 27 21 15 10 8 10 14 16 15 14 13 8 9 18 20 21 22 22 24 26 27 28 27 25 23 23 22 21 21 21 23 24 25 27 29 29 28 29 29 28 27 26 25 24 24 23 23 23 23 24 24 24 25 24 24 25 25 25 26 26 26 26 26
10 12 11 9 4 9 16 14 9 8 8 8 11 15 18 20 21 21 19 18 20 23 26 23 18 14 12 11 15 18 17 13 12 12 9 10 16 17 18 19 20 23 26 28 27 26 24 23 21 20 20 21 22 23 24 26 28 28 28 28 29 29 28 27 26 25 24 23 22 22 23 23 23 24 24 25 25 25 26 26 27 27 27 27 26 26
8 12 12 9 4 8 13 11 8 7 7 6 8 13 16 16 18 19 16 15 17 20 20 17 14 12 11 12 17 16 12 8 7 10 8 10 14 16 17 19 21 24 27 28 27 25 24 22 21 21 22 22 22 23 24 25 27 27 27 28 29 29 28 27 26 25 23 22 22 22 23 23 24 24 24 25 26 26 27 28 28 27 27 26 26 26
5 10 10 8 6 7 10 9 5 4 6 6 6 12 17 15 15 17 15 13 15 18 17 15 13 12 11 12 14 10 6 5 5 7 7 10 15 16 18 22 25 27 28 27 25 23 22 21 23 24 23 23 23 23 23 25 27 27 28 28 28 28 28 27 26 24 23 22 22 22 23 23 23 24 25 26 27 27 27 27 27 26 26 26 26 25
6 7 7 7 7 7 7 5 4 6 5 6 5 9 18 18 16 17 12 9 11 14 16 15 12 11 12 12 11 7 5 6 6 6 7 10 15 18 22 26 29 28 27 26 24 23 23 23 24 24 24 24 24 23 24 25 26 27 27 27 27 27 27 26 25 24 24 24 23 23 23 23 23 24 26 27 27 27 26 25 25 25 25 25 25 25
6 5 5 5 5 8 6 4 7 6 3 5 4 8 19 21 17 14 9 8 13 16 17 15 12 12 13 11 9 7 6 8 7 5 6 10 16 22 27 29 30 29 27 25 24 23 24 24 25 25 25 25 25 25 25 25 25 25 25 25 25 25 26 26 26 26 26 25 25 25 25 25 25 25 26 27 27 26 25 25 25 25 24 25 25 24
6 5 4 1 2 7 6 6 8 5 1 3 5 12 21 20 14 12 8 7 11 15 14 12 10 11 11 9 9 8 7 8 6 3 6 13 17 22 26 27 27 27 26 24 23 24 25 26 27 27 27 26 26 26 25 23 23 23 23 23 23 23 24 26 26 26 26 26 26 26 26 26 25 26 26 26 26 25 25 26 26 25 24 25 25 24
6 6 1 4 4 4 3 6 7 3 2 7 11 16 19 14 11 13 10 5 7 11 10 9 8 9 9 9 9 7 6 8 7 3 6 13 18 21 24 24 24 24 22 22 23 25 27 28 29 28 27 26 25 24 23 22 21 21 21 21 22 23 25 25 25 26 26 26 27 27 27 26 25 25 25 23 23 25 25 24 24 23 23 24 24 23
4 6 4 7 7 6 4 3 3 3 6 11 13 14 16 12 10 13 10 6 6 8 8 8 7 7 8 8 8 6 5 8 9 7 6 10 17 21 23 24 24 23 22 23 24 24 25 26 26 25 24 24 24 23 21 20 19 19 20 21 22 24 24 24 24 25 25 26 27 27 26 24 24 24 22 21 22 24 23 22 22 22 22 23 23 23
3 2 2 5 6 7 5 2 4 6 8 10 11 11 14 12 10 10 9 7 8 6 6 6 7 7 6 6 7 7 6 8 11 11 9 10 16 22 24 25 25 23 23 24 23 22 22 21 21 21 22 22 23 22 20 19 17 17 19 21 22 21 21 21 22 23 24 25 25 25 24 23 24 24 21 20 22 23 22 22 21 21 22 23 23 23
2 4 3 3 5 6 4 2 6 10 11 11 12 12 13 11 10 10 8 6 6 5 5 6 7 7 6 6 8 8 8 9 11 13 14 14 16 21 24 25 24 23 24 24 21 20 20 19 19 19 20 21 22 21 19 18 17 16 17 18 18 17 18 19 20 21 23 23 22 21 23 25 26 25 22 22 23 22 22 21 21 22 23 23 22 22
1 1 1 2 3 5 3 2 7 11 12 11 11 12 12 10 10 9 8 7 6 5 6 7 8 9 8 8 9 8 8 9 9 11 15 17 17 20 22 23 22 23 24 23 21 21 21 21 20 21 21 21 21 20 19 18 17 17 17 16 16 16 17 18 19 20 22 22 21 21 22 25 26 25 24 25 25 23 22 22 21 23 24 24 24 24
1 0 1 2 2 3 2 3 7 9 9 9 9 10 10 10 10 9 9 8 7 6 7 8 9 10 10 10 10 9 8 8 7 8 11 13 16 19 21 22 23 24 24 23 21 21 22 22 22 22 22 21 20 19 19 18 18 18 18 17 17 18 18 18 19 20 21 22 22 22 22 23 24 25 26 27 27 25 25 24 22 22 23 24 25 25
2 1 2 3 3 2 1 3 7 8 8 7 8 8 8 8 8 9 9 8 7 7 7 7 9 10 10 11 11 10 9 9 9 9 9 10 13 17 20 22 23 23 22 22 21 22 22 22 22 22 22 21 20 19 19 19 19 19 19 18 18 18 18 18 18 19 20 21 22 23 23 24 26 27 28 28 28 28 28 26 22 22 23 24 25 26
4 5 5 4 4 4 2 2 4 7 7 6 7 7 5 4 4 7 9 8 6 7 7 6 7 8 9 10 11 10 10 10 9 10 11 10 12 14 16 20 21 20 20 20 21 22 22 21 21 21 21 21 21 21 20 20 20 20 20 19 19 18 18 17 17 18 20 21 22 23 24 27 29 29 29 29 29 30 30 27 22 21 23 24 25 26
5 8 7 6 6 5 4 4 4 6 7 6 7 6 4 2 3 7 8 7 5 6 6 5 5 5 5 7 8 8 9 9 10 11 11 12 12 12 14 16 18 19 19 20 21 22 22 22 22 23 23 23 22 22 21 21 22 22 22 22 20 19 18 18 18 19 20 20 21 22 24 28 30 29 30 31 31 31 31 27 22 21 24 25 25 24
Wind_Direction
221 216 219 219 218 216 217 217 220 223 225 229 228 226 225 223 225 220 215 213 203 204 213 216 219 222 222 223 224 215 201 201 206 210 213 212 211 213 217 219 216 211 209 209 210 213 218 220 220 225 229 230 231 229 228 229 231 229 226 225 222 221 222 223 222 218 215 218 221 220 219 222 225 230 234 234 234 234 237 241 245 247 249 252 256 263
217 221 224 222 223 222 221 221 223 225 228 233 230 228 228 223 223 219 212 211 204 205 214 215 217 220 221 221 217 211 206 208 211 211 213 212 209 210 214 214 210 209 209 209 210 211 215 218 220 226 229 229 228 228 228 230 231 230 230 228 224 221 221 221 218 217 216 221 227 225 222 224 225 230 234 235 237 237 238 243 248 251 250 251 255 259
218 223 227 226 228 226 226 224 224 225 226 230 227 228 232 221 218 219 212 209 204 205 213 212 214 219 220 218 215 213 213 214 215 215 214 211 207 209 214 209 205 209 210 208 208 210 214 218 221 224 226 226 226 226 227 228 230 230 229 229 225 220 218 218 215 215 218 224 232 231 228 232 232 234 238 238 239 239 241 246 249 251 251 254 258 260
221 224 228 229 229 229 228 225 223 223 224 226 221 222 230 218 211 214 207 204 203 204 210 209 212 219 218 216 215 214 215 215 216 215 214 210 207 210 213 207 205 209 209 207 207 210 213 216 219 222 223 223 222 222 223 226 228 227 226 225 223 218 214 215 214 215 221 227 233 236 236 238 239 241 242 241 240 240 243 247 250 252 254 257 259 258
225 226 230 230 229 227 226 224 221 220 220 222 219 218 225 217 210 211 203 198 200 203 208 209 210 216 215 212 213 213 213 214 214 213 211 209 208 210 210 205 207 210 208 207 207 209 212 214 218 221 221 220 220 220 221 224 225 224 225 223 220 217 214 216 217 220 225 229 235 242 246 245 243 244 244 245 246 244 246 248 250 254 256 256 256 255
228 226 230 230 227 225 224 222 218 217 218 219 218 216 220 219 211 210 202 194 198 202 204 207 211 212 212 213 211 210 211 211 211 210 208 206 206 207 205 205 209 210 209 208 208 209 211 213 219 221 219 219 219 219 220 225 225 226 228 225 221 219 216 217 219 222 227 231 237 242 245 244 241 239 241 245 245 245 249 251 252 255 254 254 257 255
232 230 231 230 225 222 221 221 217 214 217 218 213 212 219 220 210 209 206 198 201 207 202 205 215 214 207 212 212 208 209 210 208 207 206 205 202 202 204 207 208 208 208 207 207 210 211 214 220 221 219 219 219 220 223 225 225 226 227 224 225 223 220 220 219 222 229 234 240 243 243 243 239 234 237 241 242 247 251 252 253 253 254 257 254 245
231 231 232 228 224 222 219 218 216 212 217 219 210 209 215 216 212 212 211 207 206 211 206 203 213 223 212 210 209 207 208 208 207 207 204 203 200 199 205 208 206 205 208 208 207 209 212 216 220 221 220 218 219 222 224 226 225 225 225 223 227 228 227 228 226 228 234 238 244 248 247 247 245 241 241 242 245 249 251 251 251 250 256 257 239 221
228 230 229 223 221 223 220 216 213 210 216 219 208 207 211 214 221 218 213 213 210 211 211 201 205 221 225 211 203 203 208 207 206 206 202 201 200 199 205 207 204 204 207 210 210 211 214 218 221 222 220 217 219 222 225 227 224 223 224 224 228 230 230 234 234 233 235 240 247 251 252 254 255 251 246 246 247 250 254 254 252 251 252 241 217 200
232 230 230 225 222 220 218 215 211 209 214 214 208 208 210 216 228 223 212 213 211 213 216 200 196 208 225 212 200 198 206 207 204 203 201 200 199 200 204 205 204 205 205 207 211 214 217 219 221 223 220 216 218 222 226 229 225 222 224 227 233 233 230 234 237 236 238 244 252 254 256 259 261 259 255 255 253 253 255 253 254 254 239 218 204 192
239 235 232 228 224 217 215 215 210 209 212 210 210 209 207 213 220 221 214 210 210 217 218 205 197 203 219 216 205 201 204 204 201 200 199 198 196 198 202 202 201 205 205 206 211 216 219 220 223 224 220 216 217 222 228 231 229 226 227 232 236 230 226 228 231 236 240 244 249 252 255 259 263 262 259 259 257 255 252 248 253 254 231 208 199 190
239 237 233 228 223 215 214 214 207 207 209 206 210 206 199 203 208 215 218 211 211 215 214 210 201 203 215 218 211 206 204 202 201 199 196 196 194 196 201 201 201 205 206 207 212 218 220 221 223 224 220 216 217 222 228 232 232 229 228 235 235 228 227 229 228 231 237 241 245 248 253 258 262 262 257 255 254 250 247 245 248 244 223 205 198 193
236 232 230 226 219 210 210 210 205 205 204 203 206 201 194 195 198 207 214 208 215 216 210 208 202 204 216 218 214 207 201 201 202 201 197 195 193 195 200 201 203 207 207 208 212 218 222 222 225 226 221 217 218 222 227 231 233 228 227 234 235 229 228 231 229 229 235 241 245 250 254 257 259 259 255 252 252 249 242 238 234 223 209 201 197 190
232 231 224 222 214 207 207 208 204 199 196 200 204 197 193 191 185 196 203 203 216 217 209 204 202 210 217 216 217 210 200 200 202 202 200 196 194 197 201 201 204 209 210 209 212 218 222 224 227 227 221 216 218 221 225 229 229 225 226 233 235 229 226 230 231 230 234 239 246 253 256 255 254 254 251 249 252 249 239 228 217 208 201 194 185 174
226 225 217 216 210 202 206 212 205 194 191 199 201 196 197 197 186 189 197 200 204 205 202 198 200 214 214 211 215 214 202 199 200 201 199 195 195 199 202 202 205 209 209 208 212 218 222 225 228 226 220 215 216 220 223 225 224 222 225 229 229 225 224 228 230 231 236 241 246 250 250 252 255 253 250 246 244 243 238 227 213 204 196 184 172 176
225 227 217 213 208 201 201 205 203 193 191 197 198 197 201 198 191 193 204 204 199 198 199 196 203 213 212 207 209 210 200 194 197 197 194 194 193 196 199 201 205 208 208 209 213 218 222 224 226 223 219 215 215 220 224 224 222 221 222 224 223 221 221 225 227 230 236 240 244 246 246 251 257 255 249 242 238 239 235 226 213 200 187 177 177 194
220 228 216 206 206 203 196 197 202 197 191 193 196 200 202 199 195 197 206 205 201 203 197 196 203 206 206 206 203 202 195 190 195 194 192 192 191 192 194 199 203 206 208 210 212 216 220 222 224 222 217 215 217 223 226 223 222 223 222 221 220 221 224 226 226 228 234 236 239 244 247 254 259 252 244 237 235 231 221 212 205 193 178 173 187 208
216 216 203 197 199 198 196 198 202 199 194 191 194 198 201 206 204 200 203 199 199 206 195 196 203 199 197 199 198 198 194 191 193 192 190 190 190 190 191 197 204 205 205 209 212 215 217 220 222 219 215 216 219 224 226 224 223 224 223 221 222 228 231 228 227 229 232 232 236 242 249 258 256 244 237 234 227 216 207 199 192 181 170 172 194 214
217 207 188 192 196 194 197 204 201 200 200 195 193 196 201 207 203 198 202 193 191 203 195 195 204 204 198 194 191 193 191 189 190 190 190 189 188 188 188 196 204 203 202 206 211 214 216 219 219 216 214 217 220 224 226 224 224 225 225 225 228 231 226 223 224 228 229 229 233 239 248 255 249 236 233 228 213 203 200 192 178 168 168 181 204 216
225 216 183 188 195 194 197 205 203 198 198 199 200 201 205 209 204 198 199 194 191 200 198 194 201 209 206 195 187 191 191 189 190 189 189 189 188 187 191 199 204 203 202 204 210 215 217 217 216 214 215 217 221 225 227 226 226 228 230 229 230 228 222 221 222 221 224 228 233 239 247 248 237 228 225 213 200 194 189 181 173 172 183 201 214 220
228 221 193 184 189 195 199 203 203 196 192 197 203 201 202 207 208 203 203 203 201 198 194 194 197 207 208 198 188 193 194 191 190 188 188 190 187 186 195 202 202 202 203 204 209 215 215 214 213 212 213 216 221 226 227 228 229 231 232 229 229 227 221 222 221 218 222 227 232 239 241 236 225 219 213 203 195 187 180 177 180 189 203 213 218 223
221 209 194 180 184 197 201 199 200 197 191 192 198 198 197 198 199 198 201 204 204 200 198 200 202 205 206 203 195 195 195 192 190 187 186 187 186 189 199 203 199 201 203 204 210 215 215 216 214 212 213 215 220 224 226 229 232 232 230 227 228 227 222 220 218 218 221 223 229 234 226 221 217 210 204 198 191 184 182 184 191 201 212 217 220 228
209 211 196 179 183 196 200 197 199 199 193 191 196 197 194 194 198 197 193 194 196 197 195 196 204 199 194 194 194 193 194 194 190 187 186 186 187 192 200 203 203 204 203 204 212 215 216 219 217 214 215 216 219 223 225 229 232 231 227 225 228 227 221 218 215 217 221 220 225 226 214 212 212 203 198 196 192 189 189 192 200 210 218 220 224 232
206 224 200 178 180 188 191 195 201 202 196 193 197 201 197 195 200 203 197 192 198 199 195 192 191 178 172 175 180 183 188 190 188 187 187 186 190 195 200 203 205 206 204 204 211 215 218 221 219 218 219 218 218 221 224 227 231 231 226 223 225 222 218 216 215 217 219 218 220 217 209 209 208 199 195 195 193 194 197 202 210 217 221 224 229 234
213 218 190 174 171 179 184 190 198 201 198 193 198 205 202 196 201 207 197 194 206 203 194 194 179 163 162 165 168 173 179 183 186 188 187 188 191 195 199 201 204 206 206 206 211 216 220 223 223 223 222 219 218 219 222 225 229 230 225 221 220 218 215 215 215 215 215 214 214 211 206 206 202 196 194 194 195 199 205 212 217 221 225 229 233 236
230 212 186 180 170 174 182 184 189 194 193 194 198 200 197 196 202 203 191 189 196 185 186 197 164 148 161 174 173 174 176 178 182 184 187 191 189 189 195 200 202 206 208 208 213 219 222 223 225 225 221 218 217 218 219 223 228 229 224 220 218 216 215 216 214 212 211 210 210 208 205 204 199 195 195 197 200 205 212 217 221 225 228 232 237 240
257 216 193 192 179 175 180 181 184 189 191 194 197 193 193 198 200 198 194 192 188 183 188 184 140 138 156 172 172 173 176 177 181 183 184 184 180 186 198 203 200 201 203 208 215 220 222 222 223 221 217 217 218 216 217 221 225 227 224 220 217 215 215 215 213 211 209 209 210 209 206 204 201 199 200 203 206 211 216 221 224 227 229 234 239 242
259 214 207 205 191 190 187 181 183 192 194 193 193 194 199 201 198 198 203 198 188 190 179 141 132 140 147 152 155 163 174 180 186 191 191 188 183 191 202 204 200 199 200 206 215 217 217 217 217 216 216 218 218 215 215 219 221 223 223 220 215 214 214 214 212 212 213 212 212 211 208 205 204 203 205 208 211 215 220 223 226 228 231 236 240 241
253 228 216 203 205 216 201 185 184 192 195 192 194 198 201 201 199 200 205 198 188 191 166 135 132 131 133 141 141 141 155 168 181 193 197 199 197 199 202 201 199 200 202 210 215 213 213 215 214 217 219 218 217 213 212 215 217 218 220 218 213 212 214 213 212 214 216 216 214 213 210 208 206 205 207 210 214 219 223 225 228 230 233 238 240 239
262 226 199 190 202 234 203 185 184 187 189 190 196 197 194 197 199 201 202 195 187 185 160 139 130 119 127 146 143 132 133 142 169 186 190 198 203 205 209 206 202 202 208 215 217 213 213 215 215 218 220 217 213 211 210 213 214 216 217 215 211 212 214 213 212 215 219 220 218 214 211 209 208 208 209 213 217 222 226 228 231 234 237 239 238 238
297 209 189 193 200 209 186 180 184 188 188 189 194 195 193 195 199 200 199 196 197 196 174 153 148 143 143 151 154 156 143 91 40 160 183 194 203 209 213 210 206 210 215 215 214 210 209 213 215 216 216 212 210 210 211 212 213 215 215 213 211 214 215 214 213 216 219 221 219 215 212 211 211 212 213 217 221 225 228 231 234 237 238 238 238 241
337 341 270 210 201 196 188 188 190 188 187 191 194 196 196 197 199 200 199 203 212 214 205 203 199 169 144 148 163 187 19 34 5 34 181 191 201 209 210 207 209 215 217 214 211 208 208 212 213 212 210 208 209 211 211 212 214 215 213 211 212 215 215 215 216 217 219 220 218 215 214 214 214 216 218 221 225 228 232 235 237 239 240 240 241 246
342 329 299 227 207 191 183 187 186 180 184 196 198 196 197 198 199 200 201 208 222 226 220 212 194 152 123 149 185 5 39 49 358 1 185 188 195 203 205 206 212 216 216 213 209 207 208 209 208 207 207 207 209 211 212 213 215 214 212 211 213 215 216 216 218 219 219 219 218 217 216 216 216 218 221 225 229 232 236 238 239 240 241 242 245 249
329 314 311 314 256 186 173 175 177 179 189 198 196 196 198 198 199 200 201 208 221 227 226 219 204 167 125 209 255 267 279 322 331 334 291 190 190 197 200 202 208 212 212 210 206 205 205 203 203 204 205 206 208 210 211 213 212 211 211 211 213 216 217 217 219 220 221 221 220 219 219 218 219 221 225 229 233 236 238 240 241 242 243 245 248 252
316 309 321 332 285 181 165 169 176 184 185 175 183 193 196 196 197 199 202 208 216 225 231 234 234 238 248 279 281 262 266 295 309 313 300 199 189 194 199 200 201 205 206 204 202 202 200 199 201 202 203 206 207 208 211 211 209 209 210 211 214 217 217 217 219 221 223 224 223 222 222 222 223 226 229 233 236 239 241 243 244 245 247 249 252 256
305 307 319 317 271 169 161 173 182 166 149 149 173 185 187 190 192 194 200 207 212 223 233 237 240 245 250 268 276 268 277 295 300 299 286 204 187 190 192 192 193 196 195 193 194 196 194 195 199 200 203 207 208 210 211 210 209 209 210 212 215 217 217 218 220 222 224 226 226 226 226 225 227 230 233 236 239 241 243 245 246 247 249 251 254 258
297 303 308 315 278 175 169 173 163 145 150 163 180 184 183 187 190 191 198 206 211 222 233 240 245 247 246 256 265 269 280 295 297 292 269 199 185 186 184 183 186 185 182 183 186 188 189 191 193 198 204 208 210 213 213 211 210 211 212 214 216 217 219 220 221 223 226 227 229 230 230 230 231 233 236 239 242 244 245 246 247 248 250 253 255 259
286 294 292 305 289 197 182 173 159 158 161 152 165 180 182 186 190 190 197 209 211 217 227 235 241 240 236 250 260 267 280 290 286 280 252 196 185 187 181 177 178 176 177 180 182 183 185 188 193 200 204 205 209 212 212 211 211 212 214 217 218 219 221 222 223 225 227 229 232 233 233 234 236 237 240 243 245 246 246 246 246 248 250 253 255 258
287 293 282 281 271 221 199 191 171 137 131 117 132 174 179 177 176 180 196 213 208 209 215 217 225 230 229 243 252 255 266 269 255 254 235 196 185 182 171 167 170 172 175 178 178 181 187 193 198 200 198 199 205 208 209 211 212 213 216 219 219 221 223 224 226 228 230 232 235 236 237 237 239 240 243 245 246 248 248 246 246 247 249 253 255 257
309 300 271 256 249 228 214 195 110 84 120 135 126 172 179 171 163 173 193 195 176 191 205 204 210 220 217 227 237 231 235 246 235 229 220 195 182 171 161 162 167 170 173 177 179 185 193 197 197 195 193 196 201 204 207 210 212 214 217 219 221 222 224 225 227 228 231 233 236 239 241 241 242 244 245 246 247 249 248 246 246 248 250 253 255 256
321 305 257 250 232 211 207 149 103 90 128 146 129 178 180 171 167 176 182 160 160 182 197 198 204 211 206 211 219 215 225 233 222 212 212 199 179 165 162 165 169 172 176 180 182 187 191 194 194 192 193 197 201 203 206 209 213 215 218 221 222 223 224 225 226 229 232 235 237 240 242 243 244 245 244 245 246 246 245 244 244 247 251 254 257 258
337 307 241 264 273 223 201 134 115 98 76 142 148 169 170 168 176 181 167 160 178 188 196 203 207 205 205 211 208 197 203 213 205 177 199 200 182 168 168 172 173 176 179 180 181 186 190 194 194 193 196 201 204 206 207 210 215 218 221 225 226 227 227 227 229 231 234 237 239 241 243 246 247 247 245 244 242 241 240 241 244 247 250 255 259 261
330 321 313 63 9 279 197 125 119 104 117 133 138 155 161 164 181 181 167 171 189 182 191 205 195 191 206 212 199 189 192 200 198 179 192 200 191 178 176 178 180 183 185 184 187 191 194 196 196 197 202 207 208 208 209 213 218 220 224 228 230 231 233 233 235 236 237 240 243 245 247 250 252 252 249 245 242 242 242 243 246 249 251 253 256 258
320 332 22 52 27 3 27 92 135 159 149 131 129 152 165 164 178 180 171 177 181 171 187 197 174 173 202 203 185 179 181 188 195 195 193 197 193 184 180 181 186 190 190 191 194 196 197 199 200 204 209 211 211 211 211 214 219 222 226 230 231 233 235 236 238 239 241 243 246 248 250 252 251 251 250 245 244 247 249 247 247 251 253 253 253 253
274 243 72 42 21 14 23 76 132 141 145 127 117 146 162 161 173 181 178 187 189 171 173 183 169 168 188 189 175 173 177 185 192 193 189 186 186 183 182 185 191 192 190 190 194 195 198 201 205 209 212 211 210 210 210 211 214 218 220 223 224 225 226 229 233 237 240 242 244 247 247 245 245 249 251 247 244 246 247 245 246 253 258 255 251 250
263 190 134 38 7 5 10 98 113 117 124 115 112 137 155 158 168 174 171 180 193 185 168 166 169 170 172 178 180 177 179 185 187 186 182 176 177 183 186 189 191 188 186 187 189 191 196 201 205 208 209 208 207 205 204 202 202 204 209 212 215 216 219 224 229 234 238 239 240 240 238 235 238 245 248 246 242 242 244 247 250 255 258 254 250 250
273 193 52 354 350 2 4 150 131 121 122 117 116 132 145 146 152 160 161 159 167 181 174 159 160 164 162 172 186 186 183 184 182 179 177 172 174 184 191 195 192 185 182 184 185 190 196 200 201 204 206 206 205 202 199 197 198 204 212 218 221 224 226 231 235 239 242 242 238 238 237 232 233 239 244 245 245 246 251 255 258 259 257 253 251 249
239 151 352 309 311 0 2 171 156 142 135 125 118 123 130 132 136 145 153 152 147 156 168 166 165 162 158 164 177 183 186 190 187 182 177 172 173 180 187 192 191 184 183 186 191 198 202 201 201 205 205 204 203 200 200 203 207 215 223 227 229 232 234 238 241 243 245 244 243 244 242 233 228 235 243 246 247 248 250 251 254 258 257 252 251 249
305 236 242 255 245 231 190 166 165 171 174 151 126 124 127 128 134 141 142 143 143 141 147 160 168 168 167 166 169 176 185 190 191 195 196 187 180 182 186 189 189 188 189 194 198 202 205 203 203 206 205 203 203 204 206 211 216 223 229 231 232 233 234 237 241 244 247 247 247 247 243 233 229 232 240 245 248 249 250 248 251 259 259 252 250 251
309 285 264 259 260 249 237 196 175 190 204 182 145 144 143 130 148 156 139 125 132 137 130 139 155 165 172 172 171 175 180 182 188 199 206 202 192 187 188 191 193 194 196 198 200 202 204 206 206 207 207 207 208 210 213 219 223 227 230 231 230 230 233 238 244 248 251 252 252 249 241 234 232 233 239 246 252 255 254 250 249 258 261 254 250 253
291 289 280 270 274 279 281 265 219 205 219 203 163 163 173 161 193 186 155 123 116 125 118 116 129 140 158 170 174 177 175 177 190 199 203 205 202 194 190 195 200 201 199 200 202 204 207 209 210 211 212 213 214 216 220 224 227 228 228 228 229 233 239 245 250 252 255 257 257 252 243 237 238 241 243 248 253 256 256 253 251 257 261 257 254 257
Height
3055 3057 3056 3056 3057 3058 3059 3060 3061 3063 3066 3066 3066 3065 3066 3067 3066 3067 3071 3073 3075 3077 3077 3079 3081 3084 3087 3091 3095 3096 3094 3096 3100 3103 3106 3109 3112 3114 3115 3117 3119 3120 3122 3123 3124 3126 3127 3129 3131 3132 3133 3134 3135 3137 3138 3140 3141 3143 3143 3144 3145 3146 3147 3149 3151 3152 3152 3153 3152 3153 3155 3157 3158 3158 3159 3160 3161 3162 3162 3163 3164 3164 3164 3164 3163 3163
3053 3052 3052 3053 3055 3056 3058 3059 3061 3063 3065 3064 3062 3062 3062 3063 3064 3065 3068 3070 3072 3073 3074 3077 3080 3082 3084 3087 3091 3093 3092 3094 3096 3099 3103 3106 3108 3110 3112 3114 3117 3118 3118 3119 3121 3122 3124 3127 3129 3130 3131 3132 3134 3135 3137 3139 3140 3141 3142 3142 3144 3145 3147 3149 3150 3150 3151 3151 3150 3153 3156 3156 3157 3157 3158 3159 3159 3160 3161 3162 3163 3163 3163 3163 3162 3162
3048 3048 3049 3051 3053 3055 3057 3058 3059 3061 3062 3061 3060 3061 3059 3058 3062 3063 3064 3067 3068 3069 3071 3074 3077 3078 3081 3084 3087 3089 3090 3091 3093 3096 3100 3103 3105 3106 3109 3111 3114 3114 3113 3115 3118 3120 3122 3125 3127 3128 3129 3130 3132 3134 3136 3138 3139 3139 3140 3141 3142 3144 3146 3147 3148 3149 3150 3149 3150 3153 3155 3155 3156 3156 3157 3158 3159 3160 3160 3161 3161 3161 3162 3162 3161 3161
3043 3044 3046 3048 3050 3053 3054 3055 3057 3058 3059 3059 3059 3059 3056 3055 3058 3059 3060 3063 3065 3067 3069 3072 3074 3076 3078 3081 3083 3085 3086 3088 3091 3094 3097 3100 3101 3103 3105 3108 3110 3109 3109 3112 3116 3118 3121 3123 3125 3126 3127 3128 3130 3133 3135 3136 3136 3137 3138 3139 3141 3143 3145 3146 3147 3149 3148 3148 3149 3152 3153 3154 3155 3155 3155 3156 3157 3158 3159 3159 3160 3160 3160 3160 3160 3160
3039 3041 3043 3045 3048 3050 3051 3052 3053 3054 3055 3056 3056 3056 3054 3053 3054 3055 3057 3062 3064 3066 3068 3070 3071 3071 3073 3075 3077 3080 3083 3085 3088 3091 3094 3097 3098 3100 3103 3106 3107 3106 3107 3110 3114 3116 3119 3121 3122 3124 3125 3126 3128 3131 3133 3134 3134 3135 3135 3137 3140 3142 3144 3145 3146 3147 3148 3148 3149 3150 3152 3152 3153 3154 3154 3154 3156 3157 3157 3158 3158 3158 3159 3159 3159 3159
3037 3039 3041 3042 3044 3046 3048 3048 3049 3051 3052 3052 3052 3054 3054 3052 3053 3054 3056 3059 3062 3062 3064 3065 3064 3063 3067 3069 3071 3076 3079 3081 3083 3086 3089 3092 3095 3098 3099 3102 3103 3103 3105 3109 3112 3115 3117 3118 3120 3121 3123 3124 3126 3130 3132 3132 3132 3133 3134 3137 3139 3141 3143 3143 3145 3146 3147 3148 3149 3150 3150 3150 3151 3152 3153 3153 3154 3154 3155 3155 3156 3156 3156 3157 3157 3157
3034 3036 3038 3039 3041 3043 3044 3044 3046 3049 3049 3048 3049 3052 3054 3052 3053 3054 3054 3056 3056 3056 3058 3061 3059 3057 3061 3064 3067 3071 3074 3077 3079 3082 3085 3089 3092 3094 3095 3098 3099 3100 3103 3107 3109 3112 3114 3116 3117 3119 3120 3122 3125 3129 3129 3129 3131 3131 3132 3136 3138 3139 3140 3141 3143 3145 3146 3147 3148 3149 3149 3148 3150 3151 3152 3152 3152 3153 3153 3154 3154 3154 3154 3155 3155 3155
3031 3033 3035 3036 3038 3039 3039 3040 3043 3046 3046 3045 3048 3052 3052 3051 3052 3052 3053 3053 3053 3055 3056 3058 3058 3055 3055 3058 3062 3067 3070 3073 3075 3077 3081 3084 3087 3090 3091 3093 3096 3098 3102 3104 3106 3109 3111 3113 3115 3116 3118 3121 3125 3126 3126 3127 3128 3128 3131 3136 3137 3137 3138 3140 3143 3145 3145 3146 3147 3148 3147 3146 3149 3151 3151 3151 3151 3151 3151 3151 3152 3152 3152 3153 3154 3154
3028 3030 3031 3033 3034 3034 3035 3038 3041 3044 3044 3044 3047 3051 3052 3052 3052 3051 3051 3050 3052 3053 3051 3051 3056 3054 3051 3052 3057 3062 3065 3067 3069 3072 3076 3080 3083 3086 3088 3090 3093 3097 3100 3102 3104 3106 3108 3110 3112 3114 3116 3120 3123 3123 3124 3123 3124 3127 3132 3135 3134 3134 3137 3140 3142 3142 3142 3144 3146 3146 3144 3145 3148 3149 3149 3149 3149 3149 3149 3150 3151 3151 3151 3152 3153 3153
3026 3027 3029 3030 3030 3030 3033 3036 3039 3041 3042 3044 3047 3049 3051 3053 3051 3049 3048 3048 3049 3049 3045 3045 3051 3050 3047 3048 3052 3055 3057 3059 3063 3068 3072 3076 3080 3082 3084 3088 3092 3095 3098 3100 3102 3103 3105 3107 3109 3112 3115 3119 3120 3121 3121 3120 3123 3128 3131 3133 3133 3133 3136 3138 3139 3140 3140 3143 3145 3144 3143 3144 3146 3146 3146 3147 3147 3147 3147 3148 3149 3150 3150 3151 3152 3153
3024 3025 3027 3027 3026 3028 3031 3034 3036 3039 3042 3045 3046 3046 3049 3051 3050 3049 3045 3045 3046 3043 3041 3042 3045 3047 3045 3044 3046 3047 3049 3054 3060 3065 3068 3072 3076 3079 3081 3085 3090 3092 3095 3098 3100 3100 3102 3104 3106 3109 3113 3116 3118 3118 3118 3119 3123 3128 3130 3132 3133 3132 3133 3135 3136 3138 3139 3142 3144 3142 3143 3143 3144 3144 3144 3144 3145 3145 3146 3147 3148 3148 3149 3150 3150 3152
3021 3022 3022 3023 3024 3027 3030 3031 3034 3037 3040 3043 3043 3042 3044 3047 3049 3048 3044 3042 3040 3037 3038 3039 3042 3045 3042 3039 3041 3044 3047 3053 3057 3060 3064 3068 3072 3075 3079 3083 3087 3090 3092 3095 3096 3096 3098 3101 3103 3106 3110 3113 3115 3116 3116 3118 3122 3126 3129 3131 3131 3130 3131 3132 3134 3136 3137 3139 3141 3141 3142 3142 3142 3142 3142 3142 3143 3144 3144 3145 3146 3146 3147 3148 3149 3151
3017 3018 3019 3020 3022 3024 3026 3028 3030 3032 3035 3038 3037 3037 3038 3039 3043 3044 3041 3038 3034 3031 3033 3036 3038 3039 3037 3037 3040 3042 3046 3051 3054 3058 3061 3065 3069 3072 3076 3080 3085 3088 3090 3092 3093 3093 3095 3097 3101 3105 3108 3111 3113 3114 3115 3117 3121 3125 3127 3128 3127 3128 3129 3131 3133 3135 3136 3136 3138 3139 3140 3140 3140 3140 3140 3140 3140 3142 3142 3143 3144 3144 3145 3147 3149 3150
3013 3014 3015 3017 3018 3020 3022 3023 3024 3025 3029 3032 3031 3031 3031 3030 3035 3038 3035 3032 3030 3028 3031 3034 3035 3034 3033 3036 3039 3040 3043 3048 3052 3056 3059 3062 3065 3069 3073 3078 3083 3085 3087 3088 3090 3090 3092 3095 3100 3104 3107 3109 3111 3112 3114 3117 3120 3123 3124 3124 3125 3126 3128 3130 3132 3134 3134 3135 3136 3137 3137 3138 3138 3138 3138 3138 3139 3140 3141 3141 3142 3143 3144 3146 3148 3149
3009 3008 3009 3011 3012 3015 3018 3019 3021 3023 3026 3028 3028 3029 3028 3024 3027 3029 3026 3025 3026 3027 3029 3031 3031 3030 3030 3033 3036 3039 3042 3045 3049 3053 3057 3060 3063 3067 3071 3076 3080 3082 3083 3085 3087 3089 3090 3094 3098 3102 3104 3107 3108 3110 3112 3116 3119 3121 3121 3122 3123 3125 3126 3129 3131 3132 3133 3134 3134 3135 3136 3136 3137 3136 3136 3136 3137 3138 3139 3140 3141 3142 3143 3145 3147 3148
3007 3005 3005 3008 3011 3014 3015 3016 3020 3022 3023 3025 3026 3026 3024 3022 3023 3024 3022 3022 3024 3025 3026 3027 3027 3028 3030 3031 3034 3039 3041 3043 3047 3051 3054 3057 3060 3065 3068 3072 3076 3078 3080 3082 3085 3086 3088 3092 3096 3099 3102 3105 3106 3108 3110 3114 3118 3119 3120 3121 3122 3123 3126 3128 3130 3131 3132 3133 3133 3134 3135 3135 3135 3134 3134 3135 3136 3137 3137 3138 3139 3141 3142 3144 3146 3147
3005 3004 3005 3007 3010 3012 3013 3015 3018 3018 3018 3021 3022 3021 3021 3021 3023 3023 3023 3024 3025 3024 3023 3023 3024 3026 3029 3030 3033 3036 3038 3042 3046 3048 3051 3054 3057 3061 3064 3068 3072 3074 3077 3081 3082 3084 3087 3091 3094 3098 3101 3103 3104 3106 3109 3113 3115 3117 3118 3119 3120 3123 3126 3128 3129 3129 3130 3131 3132 3132 3133 3133 3133 3132 3132 3133 3134 3136 3137 3137 3138 3140 3142 3143 3145 3146
3003 3003 3003 3005 3008 3010 3013 3015 3017 3017 3017 3017 3018 3019 3021 3021 3020 3020 3020 3021 3022 3022 3020 3020 3022 3022 3024 3027 3030 3033 3035 3039 3043 3046 3049 3052 3054 3058 3062 3065 3068 3071 3075 3079 3081 3082 3085 3089 3092 3096 3099 3101 3102 3104 3107 3111 3113 3114 3115 3116 3119 3123 3125 3126 3126 3127 3128 3129 3130 3130 3131 3131 3131 3131 3131 3132 3133 3134 3135 3136 3138 3140 3141 3142 3144 3145
3001 3001 3001 3004 3007 3009 3012 3014 3015 3016 3016 3016 3018 3019 3018 3015 3015 3016 3016 3017 3019 3020 3018 3018 3021 3021 3021 3024 3028 3031 3033 3037 3041 3044 3047 3050 3052 3056 3060 3062 3065 3069 3073 3076 3079 3080 3083 3087 3091 3094 3097 3098 3100 3102 3105 3108 3110 3111 3112 3114 3118 3121 3122 3123 3124 3125 3126 3127 3127 3128 3129 3129 3129 3129 3130 3131 3131 3132 3134 3135 3137 3139 3140 3141 3143 3144
3000 2999 2999 3002 3006 3009 3011 3011 3010 3011 3013 3016 3018 3017 3016 3013 3013 3013 3013 3014 3016 3016 3015 3017 3020 3019 3019 3022 3027 3030 3033 3036 3039 3042 3045 3048 3051 3054 3057 3059 3063 3067 3070 3074 3076 3078 3081 3085 3089 3092 3094 3096 3098 3100 3102 3105 3107 3108 3111 3114 3116 3117 3119 3120 3122 3123 3124 3125 3126 3127 3127 3127 3127 3128 3129 3130 3131 3132 3133 3135 3136 3138 3139 3140 3142 3143
3000 2999 2998 3001 3006 3008 3007 3006 3007 3008 3009 3012 3013 3011 3012 3013 3013 3013 3012 3012 3012 3012 3013 3016 3018 3017 3018 3021 3026 3029 3032 3035 3037 3040 3043 3046 3050 3053 3054 3056 3061 3065 3068 3072 3074 3076 3080 3083 3087 3090 3092 3094 3096 3098 3100 3101 3104 3107 3110 3112 3112 3114 3117 3119 3120 3121 3122 3123 3125 3125 3126 3126 3126 3127 3128 3129 3130 3131 3133 3134 3135 3137 3138 3140 3141 3142
2999 2998 2997 2999 3003 3003 3002 3004 3007 3008 3008 3009 3010 3009 3009 3011 3013 3012 3011 3010 3010 3010 3012 3014 3015 3015 3018 3021 3024 3027 3030 3033 3036 3039 3042 3045 3048 3051 3052 3055 3061 3064 3066 3070 3072 3074 3077 3081 3084 3088 3090 3092 3094 3095 3097 3098 3101 3105 3108 3109 3110 3112 3115 3117 3118 3119 3120 3121 3123 3124 3124 3125 3125 3126 3127 3128 3130 3131 3132 3133 3134 3136 3137 3139 3140 3141
2997 2997 2997 2998 2999 3001 3003 3005 3007 3007 3009 3009 3008 3008 3008 3010 3011 3009 3007 3007 3007 3009 3010 3012 3012 3013 3016 3020 3022 3026 3029 3032 3035 3038 3040 3043 3046 3049 3051 3055 3060 3062 3065 3068 3070 3071 3075 3079 3082 3085 3088 3090 3092 3093 3095 3096 3099 3103 3106 3107 3108 3110 3113 3115 3116 3117 3118 3119 3121 3122 3123 3124 3124 3125 3126 3128 3129 3130 3131 3132 3134 3135 3136 3138 3139 3140
2996 2996 2996 2996 2998 3001 3004 3006 3006 3007 3008 3008 3007 3007 3007 3008 3009 3007 3006 3006 3006 3005 3005 3007 3010 3012 3015 3019 3022 3025 3028 3031 3034 3036 3039 3042 3044 3047 3050 3053 3057 3059 3062 3066 3068 3069 3073 3077 3080 3083 3085 3087 3089 3091 3092 3094 3097 3100 3103 3105 3106 3108 3111 3112 3113 3115 3116 3118 3119 3121 3122 3123 3123 3124 3125 3127 3128 3129 3131 3132 3133 3134 3135 3137 3138 3139
2995 2994 2993 2992 2994 2998 3000 3002 3004 3004 3005 3006 3006 3006 3006 3008 3009 3008 3009 3010 3007 3004 3003 3004 3007 3012 3016 3020 3023 3025 3028 3031 3033 3035 3038 3040 3042 3045 3048 3050 3054 3057 3059 3063 3065 3067 3071 3075 3077 3080 3083 3085 3087 3089 3090 3092 3094 3097 3100 3102 3104 3106 3108 3110 3112 3114 3115 3117 3118 3119 3121 3122 3122 3123 3125 3126 3127 3129 3130 3131 3132 3133 3134 3135 3136 3137
2993 2992 2991 2991 2991 2993 2994 2996 2999 3001 3003 3005 3004 3004 3005 3008 3009 3008 3009 3010 3007 3006 3007 3006 3006 3012 3018 3021 3023 3025 3028 3030 3032 3034 3037 3040 3042 3044 3046 3048 3051 3054 3057 3060 3063 3065 3069 3072 3075 3077 3080 3082 3085 3086 3088 3090 3092 3095 3097 3100 3102 3104 3106 3108 3110 3112 3113 3115 3116 3118 3119 3120 3121 3122 3124 3125 3127 3128 3129 3130 3131 3132 3133 3134 3135 3135
2993 2991 2991 2991 2991 2991 2992 2994 2997 3000 3001 3002 3002 3004 3006 3007 3008 3009 3009 3009 3008 3008 3008 3008 3008 3013 3018 3020 3022 3025 3027 3029 3031 3033 3035 3037 3040 3042 3044 3047 3050 3053 3056 3058 3060 3063 3066 3069 3072 3075 3078 3080 3082 3084 3086 3088 3089 3092 3094 3097 3100 3102 3104 3105 3107 3109 3111 3113 3114 3116 3118 3119 3120 3122 3123 3124 3126 3127 3128 3129 3130 3131 3132 3133 3133 3134
2994 2992 2992 2992 2992 2993 2994 2996 2999 3001 3000 3000 3001 3004 3006 3006 3007 3009 3010 3009 3010 3008 3007 3010 3013 3014 3017 3020 3023 3025 3027 3029 3031 3033 3033 3035 3038 3040 3042 3045 3048 3051 3054 3056 3058 3061 3064 3067 3070 3073 3075 3077 3080 3082 3084 3086 3088 3089 3091 3095 3098 3100 3101 3103 3105 3107 3109 3111 3112 3114 3116 3118 3119 3120 3122 3123 3124 3125 3126 3128 3129 3129 3130 3131 3132 3133
2995 2993 2992 2992 2992 2993 2994 2996 2998 3000 3000 3001 3002 3003 3005 3006 3007 3009 3010 3010 3011 3008 3007 3012 3016 3017 3019 3022 3024 3026 3028 3029 3030 3032 3033 3035 3037 3039 3040 3043 3046 3049 3052 3054 3056 3059 3062 3065 3068 3071 3073 3075 3078 3080 3082 3084 3086 3087 3089 3093 3096 3098 3100 3102 3104 3106 3107 3109 3111 3112 3114 3116 3117 3119 3120 3121 3123 3124 3125 3126 3127 3128 3129 3129 3130 3131
2994 2993 2993 2993 2993 2992 2992 2993 2996 2997 2999 3000 3002 3003 3005 3007 3008 3010 3011 3011 3011 3011 3011 3014 3017 3019 3022 3024 3025 3026 3027 3028 3029 3030 3032 3034 3035 3037 3039 3041 3045 3048 3050 3051 3054 3057 3060 3063 3066 3068 3071 3073 3076 3078 3080 3082 3084 3086 3088 3091 3094 3096 3098 3101 3103 3104 3105 3107 3109 3110 3112 3114 3116 3117 3118 3120 3121 3122 3123 3124 3125 3126 3127 3128 3128 3129
2993 2993 2992 2993 2993 2993 2992 2994 2995 2996 2998 2999 3001 3003 3006 3008 3010 3011 3011 3012 3012 3012 3014 3016 3019 3020 3022 3024 3024 3025 3026 3027 3027 3028 3030 3032 3034 3036 3038 3040 3043 3046 3047 3048 3051 3055 3058 3060 3063 3066 3069 3071 3073 3076 3078 3081 3083 3085 3087 3089 3092 3094 3096 3099 3101 3103 3104 3105 3107 3108 3110 3112 3114 3115 3117 3118 3119 3121 3122 3123 3123 3124 3125 3126 3127 3127
2993 2992 2992 2992 2993 2992 2993 2994 2994 2995 2998 2999 3000 3003 3005 3008 3009 3011 3012 3012 3012 3014 3016 3018 3020 3021 3022 3023 3024 3024 3025 3027 3027 3027 3028 3030 3032 3034 3036 3038 3041 3043 3044 3046 3049 3052 3056 3058 3061 3064 3067 3069 3071 3074 3077 3079 3081 3083 3085 3088 3090 3092 3095 3097 3099 3101 3102 3104 3105 3107 3108 3110 3112 3114 3115 3116 3118 3119 3120 3120 3121 3122 3123 3124 3125 3125
2994 2992 2991 2992 2992 2991 2992 2994 2994 2995 2997 2997 2998 3001 3003 3006 3009 3011 3013 3013 3012 3014 3016 3018 3019 3020 3022 3023 3024 3024 3025 3026 3026 3026 3027 3028 3030 3032 3034 3037 3039 3041 3042 3044 3047 3051 3053 3056 3059 3062 3065 3067 3070 3072 3075 3077 3079 3081 3084 3086 3088 3090 3093 3095 3097 3099 3101 3102 3103 3105 3107 3108 3110 3112 3113 3115 3116 3117 3118 3118 3119 3120 3121 3122 3122 3123
2995 2993 2991 2991 2990 2989 2990 2993 2994 2995 2994 2994 2996 3000 3002 3005 3008 3010 3012 3013 3012 3011 3013 3017 3019 3020 3023 3024 3024 3024 3024 3025 3025 3025 3025 3026 3028 3030 3032 3035 3037 3038 3039 3042 3046 3049 3051 3054 3058 3061 3063 3066 3069 3071 3073 3075 3078 3080 3082 3084 3086 3088 3090 3093 3095 3097 3099 3100 3102 3103 3105 3107 3108 3110 3112 3113 3114 3115 3116 3116 3117 3118 3119 3120 3120 3121
2995 2993 2992 2991 2991 2989 2990 2992 2994 2994 2993 2993 2996 2999 3002 3005 3007 3009 3011 3013 3012 3010 3011 3015 3018 3021 3023 3024 3023 3023 3023 3023 3024 3024 3024 3024 3026 3028 3030 3033 3035 3036 3037 3040 3044 3047 3050 3053 3057 3060 3062 3065 3067 3069 3071 3073 3076 3077 3079 3082 3084 3086 3089 3091 3093 3095 3096 3098 3100 3101 3103 3105 3107 3108 3109 3111 3112 3113 3114 3114 3115 3116 3117 3117 3118 3118
2995 2994 2994 2992 2990 2989 2990 2991 2992 2992 2992 2994 2997 2999 3001 3004 3006 3008 3009 3010 3011 3010 3010 3013 3018 3020 3022 3023 3022 3022 3022 3023 3023 3023 3023 3023 3025 3026 3028 3030 3032 3034 3036 3040 3043 3046 3049 3053 3056 3059 3061 3063 3065 3067 3069 3071 3073 3075 3078 3080 3082 3085 3087 3089 3091 3093 3094 3096 3098 3100 3101 3103 3105 3106 3107 3108 3109 3110 3111 3112 3113 3114 3114 3115 3115 3116
2996 2995 2994 2993 2991 2989 2989 2990 2990 2992 2993 2995 2997 2998 3000 3002 3004 3006 3008 3009 3010 3010 3009 3012 3016 3019 3021 3022 3021 3020 3021 3022 3023 3022 3021 3022 3023 3024 3026 3028 3030 3033 3036 3039 3042 3046 3049 3052 3055 3058 3060 3062 3064 3066 3067 3070 3072 3074 3077 3079 3081 3083 3085 3087 3089 3091 3093 3094 3096 3098 3100 3101 3103 3104 3105 3106 3107 3108 3109 3109 3110 3111 3112 3112 3112 3113
2995 2995 2994 2994 2992 2990 2989 2989 2989 2991 2992 2995 2996 2998 3000 3002 3004 3006 3008 3009 3010 3010 3010 3012 3015 3017 3020 3020 3020 3020 3021 3022 3023 3022 3021 3021 3022 3023 3024 3026 3029 3032 3035 3038 3042 3045 3048 3051 3054 3056 3058 3060 3063 3065 3067 3069 3071 3074 3076 3077 3079 3082 3083 3086 3088 3089 3091 3093 3094 3096 3097 3098 3100 3101 3102 3103 3104 3105 3106 3107 3107 3108 3109 3109 3110 3110
2995 2994 2994 2993 2992 2990 2989 2987 2987 2989 2992 2994 2996 2997 2999 3001 3004 3007 3008 3008 3008 3010 3012 3014 3015 3017 3019 3020 3019 3020 3022 3022 3022 3021 3020 3020 3021 3022 3023 3026 3029 3032 3035 3039 3042 3045 3047 3050 3052 3054 3057 3060 3062 3064 3066 3069 3071 3073 3074 3076 3078 3080 3082 3084 3086 3088 3090 3091 3092 3093 3094 3096 3097 3099 3100 3100 3101 3102 3103 3104 3104 3105 3106 3106 3107 3107
2994 2994 2993 2992 2991 2990 2989 2988 2989 2991 2993 2994 2995 2997 2998 3001 3004 3006 3007 3005 3006 3009 3011 3013 3015 3017 3018 3018 3018 3020 3022 3021 3020 3020 3020 3020 3021 3021 3023 3026 3029 3032 3035 3038 3041 3044 3046 3049 3051 3054 3056 3059 3061 3063 3065 3067 3069 3071 3073 3075 3077 3079 3081 3083 3084 3086 3087 3088 3090 3091 3092 3093 3094 3095 3096 3097 3098 3098 3099 3100 3101 3102 3103 3103 3103 3104
2994 2994 2993 2992 2991 2990 2989 2990 2992 2993 2993 2993 2995 2996 2998 3001 3004 3004 3004 3004 3005 3007 3009 3011 3014 3015 3015 3016 3017 3019 3021 3020 3019 3020 3020 3020 3021 3022 3024 3026 3029 3032 3035 3037 3040 3043 3045 3048 3051 3053 3056 3058 3060 3062 3064 3066 3068 3070 3072 3074 3075 3077 3079 3081 3082 3084 3085 3086 3087 3088 3089 3090 3091 3092 3093 3093 3094 3095 3096 3097 3098 3099 3100 3101 3100 3100
2995 2993 2992 2991 2991 2990 2989 2990 2992 2994 2994 2993 2994 2996 2998 3002 3004 3003 3003 3003 3005 3007 3009 3011 3012 3013 3014 3014 3016 3018 3020 3019 3019 3020 3020 3021 3022 3024 3025 3028 3030 3032 3034 3037 3040 3042 3045 3047 3050 3052 3055 3057 3059 3061 3063 3065 3067 3069 3071 3072 3074 3076 3077 3078 3080 3081 3082 3084 3084 3085 3086 3087 3088 3088 3089 3090 3091 3092 3093 3094 3095 3096 3097 3097 3097 3098
2995 2993 2991 2991 2992 2991 2990 2992 2994 2994 2994 2993 2994 2997 2999 3001 3001 3001 3002 3003 3004 3006 3008 3009 3011 3012 3012 3013 3014 3017 3018 3018 3019 3020 3020 3022 3023 3024 3027 3029 3031 3033 3035 3037 3039 3042 3044 3046 3049 3051 3053 3056 3058 3060 3062 3064 3066 3068 3070 3071 3073 3074 3075 3076 3077 3079 3080 3081 3081 3082 3083 3084 3085 3085 3086 3087 3089 3089 3090 3092 3093 3093 3094 3094 3094 3095
2996 2994 2993 2993 2994 2993 2993 2995 2995 2995 2995 2994 2994 2996 2998 2999 2999 3001 3002 3003 3004 3006 3007 3008 3009 3011 3010 3011 3013 3015 3017 3018 3019 3019 3020 3021 3023 3024 3026 3029 3030 3033 3035 3037 3039 3042 3044 3046 3049 3051 3053 3055 3057 3059 3061 3063 3065 3066 3068 3069 3070 3071 3072 3074 3075 3076 3077 3078 3079 3079 3080 3081 3081 3082 3083 3085 3086 3086 3088 3089 3090 3090 3090 3090 3091 3091
2996 2995 2995 2995 2996 2995 2995 2996 2995 2995 2995 2994 2994 2995 2997 2999 3000 3000 3001 3002 3003 3005 3006 3007 3009 3010 3009 3010 3012 3014 3016 3018 3019 3019 3020 3021 3023 3024 3026 3028 3030 3032 3035 3037 3040 3042 3045 3047 3049 3051 3052 3054 3056 3058 3060 3061 3063 3064 3066 3067 3068 3069 3070 3071 3073 3074 3075 3076 3076 3077 3078 3078 3079 3080 3081 3083 3083 3084 3085 3086 3087 3088 3088 3088 3088 3088
2996 2995 2995 2996 2997 2996 2996 2996 2996 2996 2996 2995 2996 2997 2997 2998 2999 3000 3001 3002 3003 3004 3006 3007 3009 3010 3010 3010 3011 3013 3016 3017 3018 3019 3020 3021 3023 3025 3026 3028 3030 3032 3035 3037 3039 3042 3044 3046 3047 3049 3051 3053 3055 3056 3058 3060 3061 3063 3064 3065 3066 3067 3068 3069 3070 3071 3072 3073 3074 3075 3076 3076 3077 3078 3079 3080 3081 3082 3083 3084 3085 3085 3085 3085 3085 3086
2996 2996 2996 2997 2997 2997 2997 2997 2998 2998 2997 2997 2997 2998 2998 2999 3000 3000 3001 3002 3003 3004 3006 3007 3009 3010 3011 3011 3011 3013 3014 3016 3017 3019 3020 3021 3023 3025 3026 3028 3030 3032 3034 3036 3038 3040 3042 3043 3046 3048 3049 3051 3053 3055 3056 3058 3060 3061 3062 3063 3064 3065 3066 3067 3068 3069 3070 3071 3072 3072 3073 3074 3075 3076 3077 3078 3079 3080 3080 3081 3082 3082 3082 3082 3083 3083
2997 2997 2997 2998 2998 2998 2998 2998 2998 2999 2998 2999 2999 3000 3000 3001 3001 3002 3002 3003 3004 3004 3006 3007 3009 3010 3011 3012 3012 3013 3014 3015 3016 3018 3019 3021 3023 3024 3026 3028 3029 3031 3033 3035 3037 3039 3040 3042 3044 3046 3048 3050 3052 3053 3055 3056 3058 3059 3060 3062 3063 3063 3064 3065 3066 3067 3068 3068 3069 3070 3070 3071 3072 3074 3075 3075 3076 3077 3078 3078 3079 3079 3080 3080 3080 3080
2997 2998 2998 2998 2998 2998 2998 2998 3000 3000 2999 3000 3000 3001 3002 3002 3003 3003 3004 3004 3005 3005 3006 3007 3008 3010 3011 3012 3012 3013 3014 3015 3016 3018 3019 3021 3023 3024 3026 3027 3029 3031 3033 3035 3036 3038 3039 3041 3043 3045 3047 3049 3050 3052 3053 3054 3056 3057 3059 3060 3061 3062 3062 3063 3064 3064 3065 3066 3066 3067 3068 3069 3070 3071 3072 3073 3073 3074 3074 3075 3076 3076 3077 3077 3077 3077
2998 2998 2998 2997 2998 2998 2998 2999 3000 3001 3001 3001 3001 3001 3002 3003 3004 3004 3004 3004 3005 3006 3007 3007 3008 3009 3011 3012 3013 3014 3014 3016 3017 3019 3020 3021 3023 3025 3026 3027 3029 3031 3033 3034 3036 3037 3038 3040 3042 3044 3046 3047 3049 3050 3051 3053 3054 3056 3057 3058 3059 3059 3060 3061 3062 3062 3063 3063 3064 3065 3066 3066 3067 3068 3070 3070 3071 3071 3071 3071 3072 3073 3074 3074 3074 3074
2998 2998 2998 2998 2998 2998 2998 2999 3000 3000 3001 3001 3001 3001 3001 3002 3003 3004 3004 3005 3006 3006 3007 3008 3009 3010 3011 3012 3013 3014 3015 3016 3018 3019 3020 3022 3023 3025 3026 3027 3029 3030 3032 3034 3035 3037 3038 3039 3041 3042 3044 3046 3047 3049 3050 3051 3052 3053 3055 3056 3057 3057 3058 3059 3059 3060 3061 3061 3062 3063 3064 3064 3065 3066 3067 3068 3068 3068 3068 3068 3069 3070 3071 3071 3071 3072